EDT,Max TemperatureF,Mean TemperatureF,Min TemperatureF,Max Dew PointF,MeanDew PointF,Min DewpointF,Max Humidity, Mean Humidity, Min Humidity, Max Sea Level PressureIn, Mean Sea Level PressureIn, Min Sea Level PressureIn, Max VisibilityMiles, Mean VisibilityMiles, Min VisibilityMiles, Max Wind SpeedMPH, Mean Wind SpeedMPH, Max Gust SpeedMPH,PrecipitationIn, CloudCover, Events, WindDirDegrees
2013-3-1,41,37,32,32,29,24,96,83,69,29.79,29.71,29.62,10,9,2,20,8,24,0.02,8,Rain-Snow,326
2013-3-2,36,31,25,24,22,19,81,69,56,29.80,29.77,29.73,10,8,2,17,10,22,0.01,8,Snow,300
2013-3-3,31,27,22,23,18,14,84,74,63,29.79,29.75,29.70,10,6,1,24,12,31,0.03,8,Snow,296
2013-3-4,33,29,25,22,19,18,75,67,58,29.93,29.83,29.76,10,9,2,32,17,40,T,8,Snow,301
2013-3-5,41,35,28,24,22,19,85,66,46,30.09,30.04,29.94,10,10,10,16,9,21,T,5,Snow,347
2013-3-6,42,35,28,29,25,21,85,69,52,30.14,30.09,30.05,10,10,9,21,9,29,T,8,Rain-Snow,27
2013-3-7,38,34,30,30,25,19,100,74,48,30.18,30.14,30.12,10,5,1,16,9,21,0.19,8,Snow,5
2013-3-8,41,35,29,29,27,22,100,77,54,30.31,30.18,30.12,10,4,0,16,10,21,0.50,7,Fog-Snow,350
2013-3-9,50,35,20,24,22,18,88,60,31,30.38,30.33,30.30,10,10,10,9,4,13,0.00,0,,354
2013-3-10,51,35,19,31,23,18,92,61,30,30.37,30.29,30.21,10,10,10,18,9,25,0.00,4,,172
2013-3-11,50,43,36,40,34,30,82,69,56,30.24,30.13,29.99,10,10,10,24,13,35,0.00,7,,171
2013-3-12,53,45,36,52,43,30,96,85,73,29.99,29.83,29.70,10,8,2,20,13,33,0.81,8,Rain,199
2013-3-13,46,39,31,29,25,19,82,61,39,29.89,29.85,29.79,10,10,10,25,10,30,T,4,,292
2013-3-14,31,28,24,21,12,5,63,53,42,29.93,29.89,29.85,10,10,7,32,18,43,T,7,Snow,295
2013-3-15,38,28,18,30,19,8,70,59,47,29.96,29.79,29.67,10,8,0,25,8,33,0.01,6,Snow,261
2013-3-16,36,28,20,25,14,10,78,58,38,29.94,29.86,29.80,10,10,10,15,7,20,T,5,Snow,319
2013-3-17,35,27,18,14,8,4,67,47,27,30.35,30.14,29.95,10,10,10,23,11,29,0.00,2,,291
2013-3-18,37,26,14,27,10,0,92,57,21,30.47,30.30,30.11,10,7,1,14,4,20,0.25,6,Snow,136
2013-3-19,34,30,25,31,27,20,100,88,75,30.08,29.85,29.71,10,4,0,21,5,29,0.50,8,Fog-Snow,345
2013-3-20,36,27,17,21,17,15,84,66,47,29.83,29.80,29.78,10,10,10,22,8,28,T,4,,269
2013-3-21,34,23,11,17,11,8,92,64,35,29.83,29.75,29.67,10,10,10,16,6,20,0.00,3,,290
2013-3-22,34,26,17,23,18,10,81,70,58,29.84,29.75,29.69,10,10,10,25,7,33,T,7,Snow,280
2013-3-23,38,34,30,24,21,19,78,63,48,29.90,29.83,29.79,10,10,10,30,16,39,T,6,Snow,289
2013-3-24,43,37,30,23,21,19,69,54,39,29.92,29.85,29.77,10,10,10,15,8,21,0.00,6,,329
2013-3-25,42,36,29,27,23,21,75,62,49,29.78,29.66,29.55,10,10,10,17,8,21,0.00,8,,10
2013-3-26,48,38,28,28,23,15,75,52,29,29.86,29.74,29.63,10,10,10,15,3,20,T,5,Snow,357
2013-3-27,52,39,26,30,25,18,81,60,38,29.96,29.89,29.85,10,10,10,24,9,32,T,6,,297
2013-3-28,50,43,36,32,30,28,82,66,49,30.12,30.02,29.95,10,10,9,20,10,24,T,8,Rain,303
2013-3-29,50,43,36,31,28,26,75,57,39,30.14,30.11,30.07,10,10,10,22,10,26,0.00,5,,294
2013-3-30,55,41,27,29,23,18,85,56,26,30.15,30.11,30.06,10,10,10,20,5,30,0.00,1,,301
2013-3-31,56,42,27,40,27,20,89,58,27,30.13,29.94,29.72,10,9,5,29,8,36,0.17,7,Rain,160